User: anonymous   Login
Location: Berlin
(38.3226°N, 75.2177°W)
Time: 01:04:57
(UTC+00:00)
Language:

Cosmos 2228 - Orbit

View from above orbital plane
View from above orbital plane
View from above satellite
View from above satellite

Ground track
Ground track

The orbit data is extracted from the following two-line orbital elements,

1 22286U 92094A   21021.49660254  .00000190  00000-0  17742-4 0  9991
2 22286  82.5185 214.1080 0022542  77.7833 282.5907 14.88220956496879
Epoch (UTC): 21 January 2021 11:55:06
Eccentricity: 0.0022542
inclination: 82.5185°
perigee height: 588 km
apogee height: 619 km
right ascension of ascending node: 214.1080°
argument of perigee: 77.7833°
revolutions per day: 14.88220956
mean anomaly at epoch: 282.5907°
orbit number at epoch: 49687

The dashed part of the orbit path shows where the satellite is in the earth's shadow,  

DLR